• MPC Preparation (Info)

  • MPEC 1999-V27 : 1999 VS6

    The following Minor Planet Electronic Circular may be linked-to from your own Web pages, but must not otherwise be redistributed electronically.

    A form allowing access to any MPEC is at the bottom of this page.


    Read MPEC 1999-V26 Read MPEC 1999-V28


    M.P.E.C. 1999-V27                                Issued 1999 Nov. 8, 22:59 UT
    
         The Minor Planet Electronic Circulars contain information on unusual
             minor planets and routine data on comets.  They are published
       on behalf of Commission 20 of the International Astronomical Union by the
              Minor Planet Center, Smithsonian Astrophysical Observatory,
                              Cambridge, MA 02138, U.S.A.
    
                 BMARSDEN@CFA.HARVARD.EDU or GWILLIAMS@CFA.HARVARD.EDU
              URL http://cfa-www.harvard.edu/iau/mpc.html  ISSN 1523-6714
    
                                       1999 VS6
    
    Observations:
         J99V06S* C1999 11 06.16362 23 43 58.51 +01 38 27.2          17.3        704
         J99V06S  C1999 11 06.17993 23 43 51.37 +01 40 09.0          17.5        704
         J99V06S  C1999 11 06.19625 23 43 44.22 +01 41 50.4          17.9        704
         J99V06S  C1999 11 06.21259 23 43 37.08 +01 43 32.3          17.7        704
         J99V06S  C1999 11 06.22889 23 43 30.00 +01 45 13.3          17.3        704
         J99V06S  C1999 11 07.01866 23 38 03.09 +03 06 33.0          17.6 V      726
         J99V06S  C1999 11 07.02082 23 38 02.25 +03 06 46.6          17.7 V      726
         J99V06S  C1999 11 07.02282 23 38 01.34 +03 06 58.9          17.9 V      726
         J99V06S  C1999 11 07.02491 23 38 00.43 +03 07 11.8          17.8 V      726
         J99V06S  C1999 11 07.02699 23 37 59.59 +03 07 23.6          17.8 V      726
         J99V06S  C1999 11 07.02906 23 37 58.66 +03 07 38.3          17.8 V      726
         J99V06S  C1999 11 07.03359 23 37 56.82 +03 08 05.6          17.7 V      726
         J99V06S  C1999 11 07.04053 23 37 53.80 +03 08 48.8          18.0 V      726
         J99V06S  C1999 11 07.04400 23 37 52.40 +03 09 10.4          17.5 V      726
         J99V06S  C1999 11 07.04748 23 37 50.81 +03 09 31.2          17.5 V      726
         J99V06S  C1999 11 07.05196 23 37 49.02 +03 09 59.1          17.6 V      726
         J99V06S  C1999 11 07.10778 23 37 25.77 +03 15 52.8                      711
         J99V06S  C1999 11 07.11181 23 37 23.88 +03 16 17.1                      711
         J99V06S IC1999 11 07.11513 23 37 22.47 +03 16 37.7                      711
         J99V06S  C1999 11 07.43586 23 35 11.09 +03 49 23.9          16.9 V      402
         J99V06S  C1999 11 07.43712 23 35 10.55 +03 49 32.0                      402
         J99V06S  C1999 11 07.43838 23 35 10.04 +03 49 39.8                      402
         J99V06S  C1999 11 07.43964 23 35 09.48 +03 49 47.3                      402
         J99V06S  C1999 11 07.74933 23 33 03.83 +04 21 11.7          17.0 R      151
         J99V06S  C1999 11 07.75130 23 33 03.09 +04 21 23.2          17.6 R      151
         J99V06S  C1999 11 07.75737 23 33 00.44 +04 21 59.9          17.1 R      151
         J99V06S  C1999 11 07.75904 23 32 59.82 +04 22 14.1          16.9 R      151
         J99V06S  C1999 11 07.76222 23 32 58.49 +04 22 30.0          17.4 R      151
         J99V06S  C1999 11 08.00610 23 31 20.43 +04 47 12.3          17.7 V      726
         J99V06S  C1999 11 08.00957 23 31 18.98 +04 47 34.0          17.5 V      726
         J99V06S  C1999 11 08.01652 23 31 16.14 +04 48 15.9          17.6 V      726
         J99V06S  C1999 11 08.01999 23 31 14.76 +04 48 36.5          17.3 V      726
         J99V06S  C1999 11 08.02346 23 31 13.32 +04 48 57.2          17.7 V      726
         J99V06S  C1999 11 08.09708 23 30 42.84 +04 56 26.9          17.8 V      726
         J99V06S  C1999 11 08.09945 23 30 42.31 +04 56 49.3                      711
         J99V06S  C1999 11 08.10056 23 30 41.33 +04 56 45.4          17.5 V      726
         J99V06S  C1999 11 08.10373 23 30 40.44 +04 57 15.5                      711
         J99V06S  C1999 11 08.10402 23 30 39.81 +04 57 05.5          17.6 V      726
         J99V06S  C1999 11 08.10696 23 30 39.11 +04 57 35.0                      711
         J99V06S  C1999 11 08.12362 23 30 32.52 +04 59 13.4          17.1 R      853
         J99V06S  C1999 11 08.12475 23 30 32.04 +04 59 20.3          17.4 R      853
         J99V06S  C1999 11 08.12606 23 30 31.47 +04 59 28.3          17.0 R      853
         J99V06S  C1999 11 08.48438 23 28 07.86 +05 35 29.4          16.9 V      360
         J99V06S  C1999 11 08.48594 23 28 07.20 +05 35 38.9                      360
         J99V06S  C1999 11 08.48750 23 28 06.55 +05 35 48.1                      360
    
    Observer details:
    151 Eschenberg Observatory, Winterthur.  Observer M. Griesser.  0.25-m f/8.0
        reflector + CCD.
    360 Kuma Kogen.  Observer A. Nakamura.  0.60-m f/6.0 Ritchey-Chretien + CCD.
    402 Dynic Astronomical Observatory.  Observer A. Sugie.  0.60-m f/3.7 reflector
        + CCD.
    704 Lincoln Laboratory ETS, New Mexico.  Observers M. Blythe, F. Shelly,
        M. Bezpalko, M. Elowitz, R. Huber.  Measurers J. Stuart, H. Viggh,
        R. Sayer.  1.0-m f/2.15 reflector + CCD.
    711 McDonald Observatory.  Observer P. J. Shelus.  0.76-m reflector + CCD.
    726 Brainerd.  Observer J. Wentworth.  0.28-m Schmidt-Cassegrain + CCD.
    853 Biosphere 2 Observatory.  Observer G. J. Garradd.  0.5-m f/8.1 reflector
        + CCD.
    
    Orbital elements:
    1999 VS6
    Epoch 1999 Oct. 29.0 TT = JDT 2451480.5                 Williams
    M 292.23418              (2000.0)            P               Q
    n   0.74366675     Peri.   88.31126     -0.48426203     -0.83074127
    a   1.2065643      Node    35.30280     +0.48535930     -0.51613134
    e   0.2266831      Incl.   28.36104     +0.72795374     -0.20851230
    P   1.33           H   19.1           G   0.15
    From 45 observations 1999 Nov. 6-8.
    
    Ephemeris:
    1999 VS6                 a,e,i = 1.21, 0.23, 28                  q = 0.9331
    Date    TT    R. A. (2000) Decl.     Delta      r     Elong.  Phase     V
    1999 10 29    00 44.72   -12 06.5    0.195    1.162   146.8    27.9    17.1
    1999 11 03    00 06.89   -03 50.9    0.190    1.144   139.7    34.1    17.2
    1999 11 08    23 31.37   +04 47.0    0.194    1.125   129.8    42.6    17.5
    1999 11 13    23 00.24   +12 42.9    0.208    1.107   119.6    51.0    17.8
    1999 11 18    22 34.18   +19 24.9    0.228    1.089   110.5    58.2    18.2
    1999 11 23    22 12.79   +24 52.1    0.252    1.072   102.8    64.0    18.5
    1999 11 28    21 55.27   +29 17.2    0.278    1.055    96.4    68.4    18.8
    
    1999 12 08    21 28.56   +35 56.6    0.332    1.022    86.9    74.2    19.3
    1999 12 18    21 08.42   +40 47.3    0.382    0.993    80.2    77.5    19.7
    1999 12 28    20 50.94   +44 29.2    0.423    0.969    75.5    79.4    19.9
    2000 01 07    20 34.08   +47 17.4    0.454    0.950    72.3    80.6    20.1
    2000 01 17    20 16.79   +49 18.2    0.473    0.938    70.4    81.2    20.2
    2000 01 27    19 58.83   +50 31.8    0.477    0.933    69.7    81.7    20.2
    2000 02 06    19 40.71   +50 59.7    0.467    0.936    70.1    82.0    20.2
    2000 02 16    19 22.67   +50 45.9    0.444    0.947    71.6    82.0    20.1
    2000 02 26    19 04.55   +49 52.6    0.407    0.964    74.4    81.6    19.9
    2000 03 07    18 45.14   +48 20.9    0.359    0.987    78.7    80.4    19.7
    2000 03 17    18 21.19   +45 57.1    0.302    1.015    85.2    77.6    19.2
    2000 03 27    17 46.95   +41 48.4    0.240    1.047    95.2    71.6    18.6
    
    2000 04 01    17 23.03   +38 22.5    0.208    1.064   102.5    66.5    18.2
    2000 04 06    16 52.58   +33 12.7    0.179    1.081   112.3    58.9    17.6
    2000 04 11    16 14.68   +25 18.8    0.154    1.099   125.6    47.8    17.0
    2000 04 16    15 30.26   +13 54.2    0.138    1.117   143.1    32.6    16.4
    2000 04 21    14 42.96   -00 01.3    0.135    1.135   163.4    14.6    15.9
    2000 04 26    13 58.11   -13 13.2    0.148    1.154   175.9     3.6    15.6
    2000 05 01    13 20.05   -23 11.3    0.172    1.172   160.8    16.4    16.5
    2000 05 06    12 50.49   -29 50.9    0.206    1.190   149.0    25.9    17.2
    2000 05 11    12 28.95   -34 10.6    0.244    1.208   140.1    32.4    17.8
    2000 05 16    12 14.04   -37 03.4    0.286    1.225   133.3    36.9    18.3
    
    2000 05 26    11 58.61   -40 32.3    0.375    1.259   123.4    42.2    19.1
    2000 06 05    11 56.00   -42 37.3    0.468    1.292   116.3    44.8    19.7
    2000 06 15    12 01.69   -44 11.1    0.561    1.322   110.7    45.9    20.2
    2000 06 25    12 13.07   -45 33.2    0.653    1.351   105.9    46.4    20.6
    2000 07 05    12 28.86   -46 50.9    0.744    1.376   101.7    46.3    20.9
    2000 07 15    12 48.34   -48 07.6    0.832    1.399    97.9    46.0    21.2
    2000 07 25    13 11.06   -49 22.6    0.917    1.420    94.4    45.5    21.4
    2000 08 04    13 36.89   -50 33.9    0.998    1.437    91.1    44.9    21.6
    2000 08 14    14 05.71   -51 38.7    1.077    1.452    88.0    44.2    21.8
    2000 08 24    14 37.38   -52 32.6    1.151    1.463    84.9    43.5    21.9
    
    Gareth V. Williams           (C) Copyright 1999 MPC           M.P.E.C. 1999-V27
    

    Read MPEC 1999-V26 Read MPEC 1999-V28


    MPEC number:

    Enter an MPEC number in one of the following forms:

    • 1997-B01 (the full form)
    • J97B01 (the packed version of the full form)
    • B01 (the abbreviated form)